Location: Torrington
(42.0650°N, 104.1810°W)
Time: 12:10:09
(UTC-07:00)

Daily predictions for brighter satellites

Satellite Brightness Start Highest point End
(mag) Time Altitude Azimuth Time Altitude Azimuth Time Altitude Azimuth
Cosmos 1025 Rocket 4.4 18:07:59 10° NNE 18:11:10 19° ENE 18:14:19 10° ESE
Meteor 1-11 Rocket 4.2 18:05:44 10° SSE 18:11:10 43° E 18:16:43 10° NNE
Cosmos 1833 4.2 18:07:07 10° SSW 18:12:47 72° ESE 18:18:25 10° NNE
ALOS 3.1 18:10:09 10° SE 18:14:10 29° ENE 18:18:11 10° N
SL-16 R/B 3.6 18:11:56 10° NW 18:17:17 44° WSW 18:22:36 10° S
Cosmos 2333 Rocket 3.6 18:15:24 10° N 18:19:34 20° NE 18:23:43 10° E
SKYMED 2 3.9 18:16:18 10° N 18:20:38 70° WNW 18:24:56 10° SSW
Abrixas rocket 3.1 18:19:52 10° SSW 18:22:55 33° SE 18:25:43 12° E
Meteor 1-28 Rocket 3.5 18:21:35 10° N 18:25:24 73° WNW 18:29:12 10° SSW
Tiangong 2 4.0 18:24:11 10° WSW 18:25:29 12° SW 18:26:47 10° S
FREGAT/IRIS 2.9 18:23:00 10° SSE 18:25:58 46° ENE 18:28:58 10° N
NOAA 12 4.1 18:24:38 10° SSE 18:29:57 81° ENE 18:35:19 10° NNW
Genesis I 3.3 18:26:09 10° NNW 18:30:03 59° NE 18:33:55 10° SE
FENGYUN 3A 4.0 18:26:22 10° SE 18:31:29 45° ENE 18:36:37 10° N
Cosmos 2322 Rocket 4.3 18:27:09 10° NW 18:32:03 32° WSW 18:36:57 10° SSW
GPS 2-04 Rocket1 4.2 18:29:38 10° SW 18:33:17 28° SSE 18:36:30 12° ESE
Cosmos 1741 Rocket 4.2 18:28:24 10° S 18:33:25 50° ESE 18:38:27 10° NNE
Cosmos 1536 Rocket 4.1 18:29:36 10° NNW 18:34:03 64° W 18:38:27 10° S
Okean 1-7 Rocket 3.9 18:30:00 10° N 18:34:20 43° ENE 18:38:35 10° SSE
GEOS 3 Rocket 4.4 18:33:31 10° NE 18:38:11 32° ESE 18:42:50 10° S
Cosmos 1633 2.7 18:35:08 10° S 18:38:49 78° W 18:42:31 10° N
Cosmos 2285 Rocket 4.5 18:33:03 10° N 18:39:07 41° ENE 18:45:06 10° SE
FengYun 1-2 T 4.2 18:40:54 10° SSE 18:46:17 60° ENE 18:51:42 10° N
Cosmos 1140 Rocket 3.7 18:41:45 10° SSW 18:46:52 74° WNW 18:52:04 10° NNE
METEOR-M 4.5 18:43:10 10° S 18:48:29 71° WSW 18:53:51 10° NNW
Cosmos 614 Rocket 3.9 18:44:50 10° SSW 18:49:55 89° ESE 18:55:01 10° NNE
SJ-6B 2.9 18:45:56 10° S 18:49:56 83° WSW 18:53:51 10° NNW
Cosmos 1570 Rocket 3.9 18:45:36 10° NNW 18:50:51 77° ENE 18:56:05 10° SSE
Cosmos 2322 4.2 18:46:36 10° NNW 18:52:17 66° WSW 18:57:53 10° S
Cosmos 405 Rocket 3.6 18:54:12 10° NNE 18:57:48 29° ENE 18:58:51 26° ESE
Cosmos 1300 Rocket 4.3 18:55:30 10° SSW 18:59:50 56° W 19:04:14 10° N
CZ-2D R/B 3.6 18:59:21 19° SE 19:01:41 40° ENE 19:05:17 10° N
Helios 1A 3.6 19:00:23 24° ESE 19:02:03 33° ENE 19:05:48 10° N
Okean 2 3.7 18:58:21 10° N 19:02:21 43° ENE 19:05:39 14° SSE
H-2A R/B 2.7 18:59:11 10° SSE 19:02:49 56° ENE 19:06:31 10° N
BREEZE-M DEB (TANK) 4.2 19:00:00 10° WNW 19:03:21 62° NNE 19:11:59 21° E
Intercosmos 24 4.5 18:59:23 10° S 19:03:42 64° E 19:10:02 10° NNE
Helios 1B rocket 3.1 19:02:09 10° NE 19:05:53 31° E 19:09:35 10° SSE
Spot 2 Rocket 3.4 19:02:47 10° SSE 19:07:48 73° ENE 19:12:53 10° N
Cosmos 2237 Rocket 3.0 19:03:16 10° N 19:08:22 32° NE 19:10:07 27° E
Cosmos 2333 4.1 19:03:27 10° NNW 19:09:13 80° ENE 19:14:59 10° SSE
Gbstr 26 Del rocket 3.3 19:06:17 10° WSW 19:09:58 49° NNW 19:12:04 23° NE
Cosmos 2237 4.5 19:04:19 10° NNW 19:10:02 71° WSW 19:15:41 10° SSE
COSMOS 2428 2.7 19:04:21 10° NNW 19:10:04 88° WSW 19:15:46 10° SSE
Cosmos 2297 Rocket 3.9 19:07:11 10° SSE 19:08:19 14° SE 19:08:19 14° SE
USA 229 DEB 3.7 19:04:10 10° NNW 19:11:20 75° NE 19:17:25 16° SE
USA 229 3.7 19:04:16 10° NNW 19:11:26 75° NE 19:17:27 16° SE
Resurs 01 Rocket 1.5 19:09:35 10° SSE 19:13:59 89° E 19:18:25 10° NNW
Meteor 2-4 Rocket 3.9 19:09:02 10° NNW 19:14:33 72° W 19:19:54 10° S
Meteor 1-23 Rocket 4.3 19:11:59 10° NNW 19:17:48 83° W 19:23:31 10° S
Cosmos 1536 3.7 19:15:37 10° SSW 19:19:30 51° W 19:23:24 10° N
BREEZE-M DEB (TANK) 2.6 19:17:05 10° WNW 19:19:45 74° SSW 19:22:41 26° SE
Atlas Centaur 2 4.4 19:17:57 10° S 19:20:08 12° SSE 19:21:05 11° SSE
Cosmos 2208 Rocket 4.5 19:15:13 10° NNW 19:20:37 65° WSW 19:25:55 10° S
Cosmos 2360 Rocket 4.0 19:16:30 10° NW 19:21:29 33° WSW 19:26:28 10° SSW
HJ-1C 4.5 19:18:29 10° S 19:21:44 45° W 19:24:59 10° NNW
Cosmos 2219 Rocket 2.1 19:16:38 10° NNW 19:22:14 66° ENE 19:25:25 26° SE
SL-19 R/B 4.5 19:17:07 10° SSE 19:22:49 80° WSW 19:28:57 10° NNW
Cosmos 1814 Rocket 4.3 19:18:01 10° N 19:22:56 42° ENE 19:23:48 38° E
Envisat 3.6 19:24:19 34° ENE 19:24:22 34° ENE 19:28:56 10° N
Cosmos 1610 Rocket 4.4 19:18:44 10° S 19:24:53 67° E 19:31:00 10° NNE
Resurs 1-3 3.6 19:22:21 10° S 19:26:44 80° WSW 19:31:08 10° NNW
Cosmos 2219 3.6 19:22:20 10° SSW 19:28:02 67° WNW 19:33:47 10° NNE
ATLAS 2AS CENTAUR R/B 4.5 19:22:29 10° NNW 19:28:20 21° NNE 19:31:17 17° NE
Cosmos 2227 Rocket 2.5 19:26:04 10° S 19:31:20 41° ESE 19:31:29 41° ESE
OTV 4 3.1 19:33:01 10° SSW 19:33:37 13° SSW 19:33:37 13° SSW
USA 186 4.3 19:40:52 12° N 19:40:52 12° N 19:41:09 10° N
NOSS 3-1 (C) 4.1 19:35:00 10° NNW 19:42:25 59° NE 19:45:20 40° ESE
Cosmos 1892 Rocket 3.4 19:38:22 10° N 19:42:44 87° W 19:44:05 44° S
Spot 1 3.9 19:42:13 46° S 19:43:23 78° WSW 19:47:34 10° NNW
SL-16 R/B 3.4 19:38:35 10° N 19:42:32 26° NE 19:42:32 26° NE
SAR-Lupe-1 4.3 19:44:23 68° WNW 19:44:23 68° WNW 19:47:42 10° NNW
SAR-Lupe-4 4.0 19:44:20 52° SW 19:44:50 59° W 19:48:23 10° NNW
ALOS 4.2 19:47:29 10° SSW 19:51:32 29° W 19:55:36 10° NW
Abrixas rocket 4.2 19:56:29 10° W 19:58:29 30° WNW 19:58:29 30° WNW
Cosmos 2333 Rocket 2.3 19:58:41 10° NNW 20:04:26 72° WSW 20:05:58 49° S
Cosmos 841 Rocket 4.2 20:01:06 10° NNW 20:04:39 41° NNE 20:04:39 41° NNE
Cosmos 1544 Rocket 4.1 20:02:50 10° SSW 20:07:04 54° W 20:11:20 10° N
Cosmos 1980 3.6 20:01:52 10° NNW 20:07:34 84° WSW 20:08:03 75° S
ATLAS CENTAUR R/B 4.2 20:09:02 10° SW 20:09:45 14° SW 20:09:45 14° SW
Nadezhda 3 Rocket 4.1 20:06:59 10° NNW 20:13:07 71° W 20:16:26 29° S
GEOS 3 Rocket 4.5 20:13:34 25° NNE 20:16:18 48° NW 20:21:21 10° WSW
Cosmos 1763 Rocket 3.9 20:12:31 10° NNW 20:16:28 54° NNW 20:16:28 54° NNW
Cosmos 2341 Rocket 4.0 20:15:19 10° S 20:21:40 80° W 20:28:07 10° N
Cosmos 2237 Rocket 3.4 20:47:12 10° NW 20:52:00 38° W 20:52:00 38° W
Cosmos 2297 Rocket 4.4 20:49:21 10° SW 20:50:18 15° SW 20:50:18 15° SW
Cosmos 2219 Rocket 4.5 21:02:02 10° WNW 21:05:34 17° W 21:07:13 15° WSW
NOSS 3-1 (A) 4.5 21:07:34 10° NW 21:14:17 57° W 21:14:17 57° W
Cosmos 2227 Rocket 4.1 21:10:32 10° WSW 21:13:32 25° W 21:13:32 25° W
ATLAS 2AS CENTAUR R/B 3.9 21:13:22 10° NNW 21:18:44 41° N 21:18:44 41° N
SL-16 R/B 4.3 21:22:19 10° NW 21:24:27 23° NW 21:24:27 23° NW
